FENGYUN 3D

Last updated on Wed Mar 11 2026 00:02:26 GMT+0000 (Coordinated Universal Time)

1 43010U 17072A 26069.48186456 .00000265 00000+0 14709-3 0 9996 2 43010 99.0037 42.1729 0001532 11.9359 348.1853 14.19715558430984
UTC large
Height (km)
Speed (km/s)
/
Latitude / Longitude
Inclination (degrees)
Orbital Period (minutes)
Azimuth
Elevation
Range (km)
Doppler Factor

Next 0 passes for location: London (51.5072 / 0.1276)

Sorry there are no passes over London.